Hourly Weather Roundup
Issued by NWS Central Illinois

Home | Current Version | Previous Version | Text Only | Print | Product List | Glossary On
Versions: 1 2 3 4 5 6 7 8 9 10 11 12 13 14 15 16 17 18 19 20 21 22 23 24 25 26 27 28 29 30 31 32 33 34 35 36 37 38 39 40 41 42 43 44 45 46 47 48 49 50
000
NZUS43 KILX 280110
HWRILX

Area Weather Roundup
National Weather Service Lincoln IL
800 PM CDT THU APR 27 2017

NOTE:  "FAIR" indicates few or no clouds below 12,000 feet, with
       no sigificant weather and/or obstructions to visibility.


CITY           SKY/WX    TMP DP  RH WIND       PRES   REMARKS
Bloomington    CLOUDY    49  42  77 SW6       29.81R
Champaign      CLOUDY    50  43  77 S6        29.82R
Danville       CLOUDY    48  41  76 SW9       29.81R
Decatur        CLOUDY    51  45  79 S7        29.82R
Effingham      CLEAR     51  47  84 CALM      29.85R
Flora          CLEAR     54  47  78 S3        29.84R
Galesburg      CLOUDY    48  41  76 CALM      29.78R
Jacksonville   CLOUDY    54  45  72 CALM      29.81R
Lacon          PTCLDY    46  40  80 CALM      29.78S
Lawrenceville  CLEAR     52  45  77 SW3       29.85R
Litchfield     PTCLDY    51  46  81 SE3       29.82R
$$


CITY           SKY/WX    TMP DP  RH WIND       PRES   REMARKS
Lincoln        CLOUDY    53  45  74 CALM      29.82R
Macomb         MOCLDY    50  44  79 SW5       29.80R
Mattoon        CLEAR     50  43  77 SW5       29.82R
Mt Carmel AP   PTCLDY    53  45  74 W5        29.85R
Olney-Noble AP CLEAR     53  50  90 CALM      29.85R
Paris AP       MOCLDY    50  46  85 W5        29.85R
Peoria         CLOUDY    51  41  68 W3        29.80R
Pontiac        CLOUDY    49  44  81 CALM      29.80S
Rantoul        CLOUDY    51  45  79 S5        29.81S
Robinson       PTCLDY    50  46  86 S3        29.86R
Springfield    CLOUDY    55  44  66 SW5       29.82R
Taylorville    CLOUDY    51  46  80 S6        29.83R
$$

...REGIONAL REPORTS...


CITY           SKY/WX    TMP DP  RH WIND       PRES   REMARKS
Chicago O`Hare CLOUDY    45  34  65 W15       29.77R
Kankakee       CLOUDY    48  40  74 W9        29.82R
Moline         PTCLDY    44  36  73 SW5       29.77R
Mount Sterling MOCLDY    51  43  72 CALM      29.80R
Mount Vernon   CLEAR     51  46  83 CALM      29.84R
Pittsfield     MOCLDY    55  44  68 CALM      29.81R
Quincy         CLOUDY    52  44  74 S3        29.79R
Rockford       CLOUDY    43  35  73 W9        29.78R
$$


CITY           SKY/WX    TMP DP  RH WIND       PRES   REMARKS
Burlington     CLOUDY    52  44  74 CALM      29.77R
Cedar Rapids   CLEAR     41  35  79 NW8       29.76R
Des Moines     PTCLDY    52  35  52 N7        29.75R
Kirksville     MOCLDY    54  43  66 S6        29.76R
Ottumwa        CLOUDY    54  38  54 CALM      29.75R
St Louis       MOCLDY    60  42  51 CALM      29.79S
$$


CITY           SKY/WX    TMP DP  RH WIND       PRES   REMARKS
Terre Haute    CLOUDY    52  44  74 S5        29.83R
Evansville     CLEAR     54  46  74 S3        29.87R
Indianapolis   MOCLDY    53  43  68 W10       29.83R
Lafayette      CLOUDY    48  43  82 SW5       29.83R
Madison        CLOUDY    41  31  67 W12G18    29.71R WCI  34
Milwaukee      CLOUDY    44  36  73 SW16      29.71R
$$





USA.gov is the U.S. government's official web portal to all federal, state and local government web resources and services.